{"data":{"norad_id":53866,"intl_designator":"2022-114BA","name":"STARLINK-4762","alt_names":[],"object_type":"PAYLOAD","status":"ACTIVE","operator":null,"country":"US","launch_date":"2022-09-19","launch_site_code":"AFETR","launch_vehicle":null,"mission":null,"orbit_class":"UNKNOWN","rcs_meters":null,"size_class":null,"mass_kg":null,"dimensions":null,"purposes":["comms"],"wikipedia_slug":null,"has_3d_model":false,"image_url":null,"decayed_at":null,"tle_current":{"epoch":"2026-09-20T22:05:09.246624Z","epoch_age_seconds":48015,"freshness":"FRESH","line1":"1 53866U 22114BA  26263.92024591 -.00000462  00000+0 -25536-5 0  9998","line2":"2 53866  53.1592  91.7273 0001311  90.9795 269.1358 15.34386006223084","mean_motion":15.34386006,"eccentricity":0.0001311,"inclination_deg":53.1592,"raan_deg":91.7273,"arg_perigee_deg":90.9795,"mean_anomaly_deg":269.1358,"bstar":-2.5536e-6,"rev_number":22308,"period_min":93.848613997331,"perigee_km":461.84799403193,"apogee_km":463.64167324871,"semimajor_km":6840.8818336403,"source":"CELESTRAK","updated_at":"2026-09-21T09:00:33.026117Z"}}}